FW8050 Weather Reports


time (UTC)temp
C
wind
direction
speed
KPH
gust
KPH
rain 1hr
cm
rain 24hr
cm
rain mn
cm
humidity
%
barometer
mb
20260504110445 13 0 0.0 0.0 0.00 0.00 0.00 64 1016.4
20260504100443 13 0 0.0 0.0 0.00 0.00 0.00 62 1016.2
20260504081943 13 0 0.0 0.0 0.00 0.00 0.00 61 1016.2
20260504081442 12 0 0.0 0.0 0.00 0.00 0.00 61 1016.3
20260504080943 12 0 0.0 0.0 0.00 0.00 0.00 62 1016.3
20260504080444 12 0 0.0 0.0 0.00 0.00 0.00 62 1016.3
20260504050441 12 0 0.0 0.0 0.00 0.00 0.00 67 1017.5
20260504045940 13 0 0.0 0.0 0.00 0.00 0.00 67 1017.4
20260504045442 13 0 0.0 0.0 0.00 0.00 0.00 62 1017.5
20260504044942 13 0 0.0 0.0 0.00 0.00 0.00 65 1017.5
20260504044440 13 0 0.0 0.0 0.00 0.00 0.00 60 1017.5
20260504043942 13 145 0.0 3.2 0.00 0.00 0.00 62 1017.5
20260504043441 13 0 0.0 0.0 0.00 0.00 0.00 60 1017.5
20260504042941 13 0 0.0 0.0 0.00 0.00 0.00 56 1017.6
20260504042442 13 0 0.0 0.0 0.00 0.00 0.00 56 1017.5
20260504041943 13 0 0.0 0.0 0.00 0.00 0.00 56 1017.5
20260504041440 13 0 0.0 0.0 0.00 0.00 0.00 57 1017.4
20260504040941 13 0 0.0 0.0 0.00 0.00 0.00 59 1017.4
20260504040441 13 0 0.0 0.0 0.00 0.00 0.00 58 1017.4
20260504035940 13 11 0.0 1.6 0.00 0.00 0.00 59 1017.4
20260504035441 12 0 0.0 0.0 0.00 0.00 0.00 61 1017.5
20260504034942 12 0 0.0 0.0 0.00 0.00 0.00 66 1017.5
20260504034441 12 358 0.0 0.0 0.00 0.00 0.00 63 1017.6
20260504033941 11 0 0.0 0.0 0.00 0.00 0.00 68 1017.6
20260504033441 11 0 0.0 0.0 0.00 0.00 0.00 71 1017.6
20260504032941 11 0 0.0 0.0 0.00 0.00 0.00 70 1017.7
20260504032441 11 0 0.0 0.0 0.00 0.00 0.00 69 1017.8
20260504031941 11 0 0.0 0.0 0.00 0.00 0.00 69 1017.9
20260504031441 11 0 0.0 0.0 0.00 0.00 0.00 67 1017.9
20260504030941 11 0 0.0 0.0 0.00 0.00 0.00 67 1018.0
20260504030441 12 0 0.0 0.0 0.00 0.00 0.00 67 1018.0
20260504025941 12 0 0.0 0.0 0.00 0.00 0.00 67 1018.0
20260504025441 12 0 0.0 0.0 0.00 0.00 0.00 67 1018.1
20260504024941 12 0 0.0 0.0 0.00 0.00 0.00 66 1018.0
20260504024440 12 0 0.0 0.0 0.00 0.00 0.00 65 1017.9
20260504023941 12 0 0.0 0.0 0.00 0.00 0.00 64 1017.9
20260504023440 13 0 0.0 0.0 0.00 0.00 0.00 63 1017.9
20260504022941 13 0 0.0 0.0 0.00 0.00 0.00 61 1017.9
20260504022441 13 0 0.0 0.0 0.00 0.00 0.00 60 1017.9
20260504021941 13 0 0.0 0.0 0.00 0.00 0.00 57 1017.9
20260504021440 13 0 0.0 0.0 0.00 0.00 0.00 59 1017.8
20260504020942 13 0 0.0 0.0 0.00 0.00 0.00 58 1017.8
20260504020441 13 0 0.0 0.0 0.00 0.00 0.00 57 1017.7
20260504015941 13 91 0.0 0.0 0.00 0.00 0.00 57 1017.6
20260504015441 13 0 0.0 0.0 0.00 0.00 0.00 57 1017.6
20260504014941 13 0 0.0 0.0 0.00 0.00 0.00 56 1017.5
20260504014442 13 0 0.0 0.0 0.00 0.00 0.00 57 1017.4
20260504013941 13 0 0.0 0.0 0.00 0.00 0.00 58 1017.4
20260504013442 13 0 0.0 0.0 0.00 0.00 0.00 59 1017.3
20260504012941 13 0 0.0 0.0 0.00 0.00 0.00 58 1017.2
20260504012441 13 0 0.0 0.0 0.00 0.00 0.00 57 1017.1
20260504011941 14 0 0.0 0.0 0.00 0.00 0.00 56 1017.1
20260504011441 14 0 0.0 0.0 0.00 0.00 0.00 58 1016.9
20260504010941 14 0 0.0 0.0 0.00 0.00 0.00 56 1017.1
20260504010441 14 0 0.0 0.0 0.00 0.00 0.00 55 1017.1
20260504005942 15 0 0.0 0.0 0.00 0.00 0.00 55 1017.1
20260504005441 15 0 0.0 0.0 0.00 0.00 0.00 55 1017.1
20260504004941 15 0 0.0 0.0 0.00 0.00 0.00 53 1017.1
20260504004440 15 0 0.0 0.0 0.00 0.00 0.00 53 1016.9
20260504003940 15 0 0.0 0.0 0.00 0.00 0.00 52 1016.9
20260504003441 16 242 0.0 1.6 0.00 0.00 0.00 51 1016.9
20260504002941 16 0 0.0 0.0 0.00 0.00 0.00 49 1016.9
20260504002441 16 0 0.0 0.0 0.00 0.00 0.00 47 1017.1
20260504001941 16 0 0.0 0.0 0.00 0.00 0.00 46 1017.2
20260504001440 16 0 0.0 0.0 0.00 0.00 0.00 47 1017.2
20260504000941 16 0 0.0 0.0 0.00 0.00 0.00 47 1017.2
20260504000441 16 188 0.0 1.6 0.00 0.00 0.00 46 1017.2
20260503235941 17 0 0.0 0.0 0.00 0.00 0.00 47 1017.2
20260503235440 17 0 0.0 0.0 0.00 0.00 0.00 48 1017.2
20260503234941 17 0 0.0 0.0 0.00 0.00 0.00 47 1017.3
20260503234444 17 137 1.6 3.2 0.00 0.00 0.00 45 1017.3
20260503233940 17 152 0.0 1.6 0.00 0.00 0.00 45 1017.3
20260503233440 17 0 0.0 0.0 0.00 0.00 0.00 46 1017.3
20260503232940 17 0 0.0 0.0 0.00 0.00 0.00 45 1017.3
20260503232440 17 0 0.0 0.0 0.00 0.00 0.00 47 1017.4
20260503231941 17 0 0.0 0.0 0.00 0.00 0.00 47 1017.4
20260503231440 17 0 0.0 0.0 0.00 0.00 0.00 46 1017.5
20260503230941 18 0 0.0 0.0 0.00 0.00 0.00 43 1017.4
20260503230441 18 142 0.0 1.6 0.00 0.00 0.00 43 1017.5
20260503225942 18 0 0.0 0.0 0.00 0.00 0.00 42 1017.5
20260503225441 18 0 0.0 0.0 0.00 0.00 0.00 41 1017.6
20260503224940 18 133 1.6 3.2 0.00 0.00 0.00 43 1017.6
20260503224440 18 142 1.6 3.2 0.00 0.00 0.00 42 1017.5
20260503223943 18 0 0.0 0.0 0.00 0.00 0.00 43 1017.6
20260503223441 18 0 0.0 0.0 0.00 0.00 0.00 41 1017.6
20260503222941 18 0 0.0 0.0 0.00 0.00 0.00 42 1017.7
20260503222441 18 163 0.0 1.6 0.00 0.00 0.00 42 1017.7
20260503221941 18 204 0.0 3.2 0.00 0.00 0.00 43 1017.8
20260503221446 18 140 1.6 6.4 0.00 0.00 0.00 42 1017.8
20260503220940 18 0 0.0 0.0 0.00 0.00 0.00 43 1017.9
20260503220440 18 53 0.0 1.6 0.00 0.00 0.00 40 1017.9
20260503215941 18 162 3.2 4.8 0.00 0.00 0.00 40 1017.8
20260503215441 18 191 1.6 3.2 0.00 0.00 0.00 40 1017.9
20260503214941 18 136 1.6 4.8 0.00 0.00 0.00 39 1017.9
20260503214441 19 167 1.6 3.2 0.00 0.00 0.00 41 1018.0
20260503213940 19 217 0.0 3.2 0.00 0.00 0.00 42 1018.0
20260503213441 19 208 0.0 1.6 0.00 0.00 0.00 42 1018.1
20260503212941 19 135 1.6 3.2 0.00 0.00 0.00 39 1018.2
20260503212440 19 143 1.6 3.2 0.00 0.00 0.00 39 1018.3
20260503211941 19 306 0.0 3.2 0.00 0.00 0.00 38 1018.3
20260503211443 19 14 1.6 6.4 0.00 0.00 0.00 37 1018.3
20260503210940 19 179 1.6 3.2 0.00 0.00 0.00 38 1018.3
20260503210440 19 135 3.2 6.4 0.00 0.00 0.00 39 1018.3
20260503205941 19 155 1.6 3.2 0.00 0.00 0.00 39 1018.3
20260503205441 19 139 3.2 4.8 0.00 0.00 0.00 42 1018.4
20260503204940 19 158 1.6 3.2 0.00 0.00 0.00 41 1018.4
20260503204441 19 0 0.0 0.0 0.00 0.00 0.00 40 1018.5
20260503203941 19 158 1.6 3.2 0.00 0.00 0.00 41 1018.6
20260503203440 19 97 0.0 1.6 0.00 0.00 0.00 40 1018.6
20260503202941 19 129 3.2 6.4 0.00 0.00 0.00 40 1018.8
20260503202442 20 191 1.6 4.8 0.00 0.00 0.00 40 1018.9
20260503201941 20 203 3.2 6.4 0.00 0.00 0.00 40 1019.0
20260503201441 20 175 3.2 3.2 0.00 0.00 0.00 40 1019.1
20260503200941 20 178 0.0 3.2 0.00 0.00 0.00 40 1019.2
20260503200444 19 154 1.6 3.2 0.00 0.00 0.00 41 1019.3
20260503195940 19 147 1.6 3.2 0.00 0.00 0.00 41 1019.3
20260503195440 20 209 1.6 3.2 0.00 0.00 0.00 42 1019.5
20260503194940 20 176 3.2 6.4 0.00 0.00 0.00 45 1019.5
20260503194441 20 172 4.8 6.4 0.00 0.00 0.00 43 1019.7
20260503193941 20 163 3.2 8.0 0.00 0.00 0.00 43 1019.8
20260503193441 20 164 1.6 4.8 0.00 0.00 0.00 42 1019.8
20260503192940 20 157 1.6 4.8 0.00 0.00 0.00 40 1019.9
20260503192440 20 194 1.6 4.8 0.00 0.00 0.00 43 1019.9
20260503191941 20 175 3.2 9.7 0.00 0.00 0.00 40 1020.0
20260503191441 20 191 1.6 3.2 0.00 0.00 0.00 41 1020.2
20260503190941 20 186 1.6 3.2 0.00 0.00 0.00 42 1020.2
20260503190441 20 138 3.2 6.4 0.00 0.00 0.00 41 1020.3
20260503185942 20 214 3.2 4.8 0.00 0.00 0.00 42 1020.4
20260503185441 20 201 3.2 4.8 0.00 0.00 0.00 40 1020.4
20260503184942 20 51 1.6 3.2 0.00 0.00 0.00 41 1020.3
20260503184441 20 153 3.2 6.4 0.00 0.00 0.00 42 1020.4
20260503183942 20 153 3.2 4.8 0.00 0.00 0.00 43 1020.4
20260503183441 20 197 1.6 4.8 0.00 0.00 0.00 41 1020.5
20260503182940 20 143 4.8 6.4 0.00 0.00 0.00 39 1020.5
20260503182441 20 193 1.6 3.2 0.00 0.00 0.00 40 1020.7
20260503181943 19 212 3.2 3.2 0.00 0.00 0.00 41 1020.5
20260503181441 18 141 3.2 6.4 0.00 0.00 0.00 40 1020.6
20260503180943 20 132 3.2 8.0 0.00 0.00 0.00 38 1020.8
20260503180441 20 197 1.6 3.2 0.00 0.00 0.00 40 1020.8
20260503175941 20 158 1.6 4.8 0.00 0.00 0.00 40 1020.9
20260503175442 19 161 3.2 6.4 0.00 0.00 0.00 40 1020.9
20260503174940 20 114 6.4 12.9 0.00 0.00 0.00 40 1020.9
20260503174441 20 80 1.6 9.7 0.00 0.00 0.00 39 1021.1
20260503173941 20 195 1.6 3.2 0.00 0.00 0.00 42 1021.1
20260503173441 19 180 1.6 4.8 0.00 0.00 0.00 41 1021.1
20260503172940 19 125 1.6 4.8 0.00 0.00 0.00 40 1021.3
20260503172441 19 196 0.0 3.2 0.00 0.00 0.00 41 1021.5
20260503171941 19 186 3.2 4.8 0.00 0.00 0.00 41 1021.6
20260503171441 19 192 3.2 6.4 0.00 0.00 0.00 43 1021.5
20260503170940 20 190 3.2 4.8 0.00 0.00 0.00 39 1021.6
20260503170442 19 141 3.2 6.4 0.00 0.00 0.00 39 1021.7
20260503150944 15 143 1.6 4.8 0.00 0.00 0.00 52 1022.3
20260503150443 16 125 3.2 4.8 0.00 0.00 0.00 51 1022.2
20260503130942 10 137 0.0 3.2 0.00 0.00 0.00 80 1022.0
20260503130441 10 152 0.0 3.2 0.00 0.00 0.00 81 1022.0